Location: Observatoire de Paris
(48.8363°N, 2.3365°E)
Time: 00:44:28
(UTC+01:00)

Tianhe-1 - Visible Passes

Search period start: 23 June 2021 00:00
Search period end: 03 July 2021 00:00
Orbit: 375 x 385 km, 41.5° (Epoch: 22 June)

Date Brightness Start Highest point End Pass type
(mag) Time Alt. Az. Time Alt. Az. Time Alt. Az.
23 Jun 2.9 03:58:59 10° SSW 04:01:11 17° SSE 04:03:23 10° ESE visible
24 Jun 3.1 03:00:13 14° SSE 03:00:16 14° SSE 03:01:59 10° SE visible
25 Jun 2.6 03:33:42 14° SSW 03:35:17 20° S 03:37:40 10° ESE visible
26 Jun 3.1 02:35:00 15° SE 02:35:00 15° SE 02:36:14 10° SE visible
27 Jun 2.4 03:08:22 20° SSW 03:08:54 21° S 03:11:21 10° SE visible
28 Jun 3.6 02:09:40 11° SE 02:09:40 11° SE 02:09:49 10° ESE visible
28 Jun 2.6 03:41:46 12° SW 03:43:35 19° S 03:45:53 10° SE visible
29 Jun 2.9 02:43:10 17° SSE 02:43:10 17° SSE 02:44:28 10° SE visible
30 Jun 2.9 03:16:57 16° S 03:16:57 16° S 03:18:28 10° SSE visible
